FW6131 Weather Reports


time (UTC)temp
C
wind
direction
speed
KPH
gust
KPH
rain 1hr
cm
rain 24hr
cm
rain mn
cm
humidity
%
barometer
mb
20260505124541 14 8 3.2 8.0 0.00 0.00 0.00 71 1011.6
20260505123057 13 100 4.8 12.9 0.00 0.00 0.00 71 1011.8
20260505121539 14 33 6.4 12.9 0.00 0.00 0.00 71 1011.8
20260505120037 13 360 3.2 9.7 0.00 0.00 0.00 71 1011.8
20260505114551 13 22 3.2 14.5 0.00 0.00 0.00 73 1011.8
20260505113039 13 12 6.4 12.9 0.00 0.00 0.00 73 1011.8
20260505111554 14 56 4.8 16.1 0.00 0.00 0.00 71 1011.8
20260505101541 14 355 3.2 16.1 0.00 0.00 0.00 72 1012.3
20260505100039 13 342 3.2 16.1 0.00 0.00 0.00 72 1012.2
20260505094539 13 47 6.4 17.7 0.00 0.00 0.00 71 1012.4
20260505093038 13 350 4.8 19.3 0.00 0.00 0.00 73 1012.4
20260505091536 13 20 4.8 17.7 0.00 0.00 0.00 71 1012.5
20260505090038 12 29 8.0 14.5 0.00 0.00 0.00 75 1012.6
20260505084543 12 31 4.8 17.7 0.00 0.00 0.00 78 1012.7
20260505083046 11 59 4.8 14.5 0.00 0.00 0.00 80 1012.7
20260505081546 11 23 3.2 12.9 0.00 0.00 0.00 81 1012.7
20260505080040 10 20 4.8 12.9 0.00 0.00 0.00 82 1012.7
20260505074541 10 355 4.8 12.9 0.00 0.00 0.00 83 1012.8
20260505073040 10 355 4.8 14.5 0.00 0.00 0.00 84 1012.9
20260505071540 9 355 6.4 14.5 0.00 0.00 0.00 86 1012.9
20260505070045 9 355 4.8 14.5 0.00 0.00 0.00 85 1012.8
20260505064555 8 355 4.8 14.5 0.00 0.00 0.00 86 1012.8
20260505063046 8 355 1.6 16.1 0.00 0.00 0.00 87 1012.9
20260505061542 8 355 4.8 14.5 0.00 0.00 0.00 87 1013.0
20260505060042 8 0 3.2 8.0 0.00 0.00 0.00 88 1013.0
20260505054538 7 355 4.8 9.7 0.00 0.00 0.00 88 1012.9
20260505053041 7 355 1.6 9.7 0.00 0.00 0.00 88 1013.0
20260505051539 7 355 1.6 8.0 0.00 0.00 0.00 88 1013.1
20260505041544 7 355 3.2 9.7 0.00 0.00 0.00 87 1012.9
20260505040037 7 355 3.2 8.0 0.00 0.00 0.00 87 1012.9
20260505034542 7 355 1.6 8.0 0.00 0.00 0.00 87 1013.0
20260505033038 7 355 1.6 9.7 0.00 0.00 0.00 87 1012.9
20260505031537 8 355 3.2 9.7 0.00 0.00 0.00 87 1013.0
20260505030037 8 0 3.2 6.4 0.00 0.00 0.00 87 1013.0
20260505024543 8 355 1.6 6.4 0.00 0.00 0.00 86 1013.1
20260505023046 8 355 1.6 6.4 0.00 0.00 0.00 85 1013.2
20260505021544 8 355 1.6 8.0 0.00 0.00 0.00 85 1013.2
20260505020037 8 355 3.2 6.4 0.00 0.00 0.00 85 1013.2
20260505014542 8 355 1.6 6.4 0.00 0.00 0.00 85 1013.4
20260505013036 8 355 1.6 6.4 0.00 0.00 0.00 85 1013.2
20260505011536 8 0 0.0 3.2 0.00 0.00 0.00 85 1013.4
20260505010105 8 0 0.0 3.2 0.00 0.00 0.00 85 1013.6
20260505004538 8 0 0.0 4.8 0.00 0.00 0.00 85 1013.7
20260505003038 8 355 0.0 4.8 0.00 0.00 0.00 85 1013.8
20260505001548 8 355 1.6 8.0 0.00 0.00 0.00 85 1013.9
20260505000042 8 355 1.6 8.0 0.00 0.00 0.00 85 1013.9
20260504234535 8 355 3.2 12.9 0.00 0.03 0.00 85 1013.9
20260504233039 8 355 1.6 12.9 0.00 0.03 0.00 85 1013.8
20260504231554 8 355 3.2 12.9 0.00 0.03 0.00 85 1013.9
20260504230037 8 355 3.2 9.7 0.00 0.03 0.00 85 1014.0
20260504224540 9 355 3.2 9.7 0.00 0.03 0.00 85 1014.1
20260504223037 9 0 0.0 8.0 0.00 0.03 0.00 85 1014.3
20260504221546 9 0 3.2 12.9 0.00 0.03 0.00 85 1014.2
20260504220043 10 355 1.6 14.5 0.00 0.03 0.00 86 1014.3
20260504214538 10 355 3.2 9.7 0.00 0.03 0.03 87 1014.2
20260504213037 10 355 0.0 4.8 0.00 0.03 0.03 89 1014.3
20260504211547 10 355 1.6 4.8 0.00 0.03 0.03 89 1014.3
20260504210057 10 355 0.0 4.8 0.00 0.03 0.03 90 1014.4
20260504204547 10 0 0.0 3.2 0.00 0.08 0.03 89 1014.4
20260504203045 10 355 0.0 4.8 0.00 0.08 0.03 89 1014.3
20260504201546 10 0 0.0 0.0 0.00 0.08 0.03 88 1014.3
20260504200038 11 0 0.0 1.6 0.00 0.08 0.03 88 1014.2
20260504194558 11 0 0.0 4.8 0.00 0.08 0.03 86 1014.2
20260504193038 11 0 0.0 3.2 0.00 0.08 0.03 85 1014.2
20260504191545 12 0 0.0 4.8 0.00 0.08 0.03 84 1014.1
20260504190044 12 355 0.0 6.4 0.00 0.08 0.03 83 1014.1
20260504184541 12 0 0.0 6.4 0.00 0.08 0.03 82 1014.1
20260504183037 13 0 0.0 6.4 0.00 0.08 0.03 81 1014.1
20260504181544 13 294 0.0 8.0 0.00 0.08 0.03 80 1013.8
20260504174536 14 0 1.6 4.8 0.00 0.08 0.03 79 1013.8
20260504173044 15 337 0.0 6.4 0.00 0.08 0.03 77 1013.8
20260504171538 15 286 1.6 6.4 0.00 0.08 0.03 75 1013.7